Location: Bayview
(38.0070°N, 122.3188°W)
Time: 07:07:30
(UTC+00:00)

Daily predictions for brighter satellites

Satellite Brightness Start Highest point End
(mag) Time Altitude Azimuth Time Altitude Azimuth Time Altitude Azimuth
Meteor 1-19 Rocket 4.4 12:01:59 10° NNW 12:08:00 78° W 12:14:00 10° S
Envisat 4.5 12:05:19 10° NNE 12:10:01 37° E 12:14:41 10° SSE
ALOS 2.7 12:07:02 10° N 12:11:29 45° WNW 12:15:54 10° SW
Cosmos 2219 Rocket 4.0 12:14:09 10° W 12:15:38 11° W 12:17:07 10° WSW
Cosmos 1378 3.5 12:12:07 10° N 12:15:48 68° E 12:19:27 10° SSE
ISS -1.2 12:14:53 10° WNW 12:16:56 15° NNW 12:18:58 10° NNE
USA 238 DEB 4.5 12:12:36 10° WSW 12:18:31 38° NW 12:24:48 10° NNE
USA 238 4.4 12:12:43 10° WSW 12:18:39 38° NW 12:24:57 10° NNE
Cosmos 371 Rocket 3.4 12:15:24 10° NNW 12:20:14 82° ENE 12:25:02 10° SSE
Meteor 1-5 Rocket 4.3 12:14:55 10° S 12:20:17 80° E 12:25:35 10° N
Cosmos 2228 Rocket 3.3 12:16:45 10° N 12:21:12 81° E 12:25:39 10° S
